EW7512 Weather Reports


Display with metric or nautical units.
time (UTC)temp
F
wind
direction
speed
MPH
gust
MPH
rain 1hr
in
rain 24hr
in
rain mn
in
humidity
%
barometer
mb
20260901111033 86 56 7.0 15.0 0.00 0.00 0.00 37 1015.5
20260901110532 86 95 7.0 14.0 0.00 0.00 0.00 36 1015.6
20260901110033 86 49 7.0 14.0 0.00 0.00 0.00 36 1015.7
20260901105532 86 38 8.0 17.0 0.00 0.00 0.00 37 1015.7
20260901105033 86 360 9.0 17.0 0.00 0.00 0.00 36 1015.8
20260901104539 86 69 9.0 17.0 0.00 0.00 0.00 36 1015.8
20260901104035 86 76 6.0 15.0 0.00 0.00 0.00 37 1015.7
20260901103531 86 63 8.0 16.0 0.00 0.00 0.00 37 1015.7
20260901103040 86 40 6.0 18.0 0.00 0.00 0.00 38 1015.8
20260901102531 85 32 7.0 18.0 0.00 0.00 0.00 38 1015.8
20260901102031 86 360 10.0 17.0 0.00 0.00 0.00 36 1015.9
20260901101532 86 32 5.0 15.0 0.00 0.00 0.00 37 1015.9
20260901101029 86 89 7.0 15.0 0.00 0.00 0.00 37 1015.9
20260901100530 85 85 7.0 20.0 0.00 0.00 0.00 37 1016.0
20260901100032 85 60 11.0 20.0 0.00 0.00 0.00 37 1016.0
20260901095526 85 41 7.0 16.0 0.00 0.00 0.00 38 1016.0
20260901095026 85 67 6.0 15.0 0.00 0.00 0.00 37 1016.1
20260901094525 85 57 8.0 17.0 0.00 0.00 0.00 37 1016.1
20260901094025 85 49 8.0 17.0 0.00 0.00 0.00 38 1016.1
20260901093524 85 51 6.0 16.0 0.00 0.00 0.00 39 1016.1
20260901093023 85 40 8.0 16.0 0.00 0.00 0.00 38 1016.1
20260901092522 85 51 6.0 15.0 0.00 0.00 0.00 40 1016.0
20260901092021 85 45 8.0 15.0 0.00 0.00 0.00 40 1016.0
20260901091520 85 36 9.0 15.0 0.00 0.00 0.00 40 1016.1
20260901091019 85 80 9.0 15.0 0.00 0.00 0.00 40 1015.9
20260901090518 85 32 5.0 12.0 0.00 0.00 0.00 42 1015.9
20260901090029 85 355 7.0 14.0 0.00 0.00 0.00 42 1015.8
20260901085515 84 35 5.0 15.0 0.00 0.00 0.00 43 1015.9
20260901085014 84 360 7.0 16.0 0.00 0.00 0.00 44 1015.9
20260901084514 84 67 7.0 18.0 0.00 0.00 0.00 44 1015.9
20260901084012 84 79 9.0 18.0 0.00 0.00 0.00 43 1015.9
20260901083510 84 24 7.0 15.0 0.00 0.00 0.00 43 1015.9
20260901083009 83 69 8.0 14.0 0.00 0.00 0.00 44 1015.9
20260901082509 83 76 6.0 14.0 0.00 0.00 0.00 44 1016.0
20260901082006 83 39 8.0 15.0 0.00 0.00 0.00 44 1015.9
20260901081504 83 22 6.0 16.0 0.00 0.00 0.00 45 1015.9
20260901081004 82 76 8.0 17.0 0.00 0.00 0.00 45 1015.8
20260901080504 83 88 9.0 17.0 0.00 0.00 0.00 45 1015.9
20260901080009 83 62 7.0 18.0 0.00 0.00 0.00 44 1015.9
20260901075502 82 19 9.0 18.0 0.00 0.00 0.00 44 1015.8
20260901075002 82 328 5.0 14.0 0.00 0.00 0.00 47 1015.7
20260901074600 82 53 7.0 14.0 0.00 0.00 0.00 46 1015.8
20260901074103 82 57 6.0 13.0 0.00 0.00 0.00 46 1015.7
20260901073559 82 11 4.0 11.0 0.00 0.00 0.00 47 1015.6
20260901073059 81 360 6.0 12.0 0.00 0.00 0.00 48 1015.6
20260901072558 81 53 5.0 12.0 0.00 0.00 0.00 48 1015.5
20260901072058 81 84 7.0 12.0 0.00 0.00 0.00 48 1015.5
20260901071603 81 51 6.0 12.0 0.00 0.00 0.00 48 1015.4
20260901071055 81 22 4.0 11.0 0.00 0.00 0.00 49 1015.3
20260901070553 80 38 5.0 12.0 0.00 0.00 0.00 52 1015.3
20260901070100 80 53 5.0 11.0 0.00 0.00 0.00 52 1015.4
20260901065554 80 28 5.0 14.0 0.00 0.00 0.00 52 1015.4
20260901065049 80 9 6.0 14.0 0.00 0.00 0.00 52 1015.4
20260901064604 79 86 5.0 10.0 0.00 0.00 0.00 53 1015.3
20260901064045 79 29 4.0 10.0 0.00 0.00 0.00 54 1015.4
20260901063544 79 340 5.0 11.0 0.00 0.00 0.00 55 1015.4
20260901063050 78 360 5.0 11.0 0.00 0.00 0.00 55 1015.5
20260901062542 79 14 4.0 11.0 0.00 0.00 0.00 54 1015.5
20260901062041 78 49 2.0 10.0 0.00 0.00 0.00 55 1015.5
20260901061539 78 49 4.0 12.0 0.00 0.00 0.00 56 1015.5
20260901061038 77 38 4.0 12.0 0.00 0.00 0.00 57 1015.6
20260901060536 77 53 5.0 11.0 0.00 0.00 0.00 57 1015.6
20260901060040 77 60 3.0 11.0 0.00 0.00 0.00 58 1015.6
20260901055534 77 53 5.0 9.0 0.00 0.00 0.00 58 1015.6
20260901055032 77 31 4.0 9.0 0.00 0.00 0.00 59 1015.5
20260901054531 76 44 4.0 9.0 0.00 0.00 0.00 59 1015.5
20260901054030 76 76 3.0 6.0 0.00 0.00 0.00 60 1015.5
20260901053529 76 79 3.0 8.0 0.00 0.00 0.00 62 1015.5
20260901053027 75 59 3.0 9.0 0.00 0.00 0.00 63 1015.4
20260901052525 75 67 3.0 9.0 0.00 0.00 0.00 64 1015.4
20260901052023 75 17 2.0 5.0 0.00 0.00 0.00 65 1015.4
20260901051523 74 50 2.0 6.0 0.00 0.00 0.00 65 1015.4
20260901051021 74 45 2.0 4.0 0.00 0.00 0.00 66 1015.4
20260901050524 73 64 1.0 3.0 0.00 0.00 0.00 66 1015.4
20260901050019 74 46 1.0 3.0 0.00 0.00 0.00 66 1015.3
20260901045516 73 29 0.0 4.0 0.00 0.00 0.00 66 1015.3
20260901045015 73 28 0.0 3.0 0.00 0.00 0.00 67 1015.3
20260901044513 72 30 0.0 4.0 0.00 0.00 0.00 68 1015.2
20260901044013 72 360 0.0 3.0 0.00 0.00 0.00 68 1015.2
20260901043511 72 360 0.0 2.0 0.00 0.00 0.00 68 1015.1
20260901043015 71 56 0.0 4.0 0.00 0.00 0.00 68 1015.2
20260901042509 71 59 1.0 4.0 0.00 0.00 0.00 68 1015.2
20260901042007 71 55 0.0 2.0 0.00 0.00 0.00 68 1015.1
20260901041508 71 56 0.0 3.0 0.00 0.00 0.00 69 1015.0
20260901041006 71 56 1.0 4.0 0.00 0.00 0.00 68 1015.0
20260901040506 71 57 0.0 4.0 0.00 0.00 0.00 68 1015.0
20260901040005 71 54 1.0 3.0 0.00 0.00 0.00 68 1015.0
20260901035505 71 48 0.0 1.0 0.00 0.00 0.00 67 1015.0
20260901035003 71 48 0.0 2.0 0.00 0.00 0.00 66 1014.9
20260901034509 72 48 0.0 5.0 0.00 0.00 0.00 65 1014.9
20260901034003 72 9 1.0 5.0 0.00 0.00 0.00 64 1014.8
20260901033502 72 22 1.0 4.0 0.00 0.00 0.00 64 1014.7
20260901033007 72 15 0.0 4.0 0.00 0.00 0.00 63 1014.8
20260901032505 72 24 1.0 4.0 0.00 0.00 0.00 63 1014.7
20260901032001 72 42 1.0 4.0 0.00 0.00 0.00 63 1014.7
20260901031502 72 9 2.0 4.0 0.00 0.00 0.00 63 1014.8
20260901031001 71 26 0.0 3.0 0.00 0.00 0.00 63 1014.8
20260901030500 71 15 1.0 4.0 0.00 0.00 0.00 62 1014.8
20260901030000 71 11 1.0 4.0 0.00 0.00 0.00 62 1014.8
20260901025600 71 15 0.0 3.0 0.00 0.00 0.00 61 1014.8
20260901025101 71 22 0.0 4.0 0.00 0.00 0.00 60 1014.8
20260901024603 71 360 0.0 4.0 0.00 0.00 0.00 59 1014.7
20260901024058 72 360 1.0 3.0 0.00 0.00 0.00 58 1014.7
20260901023557 72 360 0.0 4.0 0.00 0.00 0.00 57 1014.7
20260901023058 72 38 1.0 4.0 0.00 0.00 0.00 57 1014.8
20260901022557 72 360 1.0 3.0 0.00 0.00 0.00 56 1014.8
20260901022057 72 360 0.0 2.0 0.00 0.00 0.00 55 1014.8
20260901021558 72 360 0.0 3.0 0.00 0.00 0.00 55 1014.8
20260901021058 72 27 1.0 4.0 0.00 0.00 0.00 55 1014.8
20260901020555 72 19 1.0 4.0 0.00 0.00 0.00 54 1014.8
20260901020057 72 15 2.0 5.0 0.00 0.00 0.00 54 1014.7
20260901015555 72 15 1.0 5.0 0.00 0.00 0.00 54 1014.7
20260901015054 72 360 2.0 8.0 0.00 0.00 0.00 54 1014.7
20260901014555 72 360 3.0 5.0 0.00 0.00 0.00 54 1014.7
20260901014058 71 360 2.0 5.0 0.00 0.00 0.00 54 1014.7
20260901013554 71 360 1.0 6.0 0.00 0.00 0.00 54 1014.7
20260901013104 71 24 1.0 6.0 0.00 0.00 0.00 54 1014.7
20260901012554 71 360 3.0 5.0 0.00 0.00 0.00 54 1014.8
20260901012054 71 360 1.0 5.0 0.00 0.00 0.00 54 1014.9
20260901011554 71 360 1.0 6.0 0.00 0.00 0.00 53 1014.9
20260901011054 71 360 1.0 6.0 0.00 0.00 0.00 53 1014.8
20260901010553 71 360 2.0 4.0 0.00 0.00 0.00 53 1014.8
20260901010057 71 360 2.0 4.0 0.00 0.00 0.00 53 1014.8
20260901005552 71 350 1.0 4.0 0.00 0.00 0.00 53 1014.8
20260901005050 71 17 0.0 4.0 0.00 0.00 0.00 53 1014.9
20260901004557 72 19 0.0 3.0 0.00 0.00 0.00 53 1014.9
20260901004049 72 20 1.0 5.0 0.00 0.00 0.00 52 1015.0
20260901003548 72 324 2.0 6.0 0.00 0.00 0.00 52 1015.0
20260901003056 73 360 1.0 9.0 0.00 0.00 0.00 51 1015.0
20260901002546 73 360 5.0 9.0 0.00 0.00 0.00 50 1014.9
20260901002046 73 360 3.0 6.0 0.00 0.00 0.00 50 1015.0
20260901001547 73 360 3.0 5.0 0.00 0.00 0.00 50 1015.0
20260901001044 74 360 2.0 4.0 0.00 0.00 0.00 49 1015.0
20260901000543 74 360 1.0 4.0 0.00 0.00 0.00 49 1015.0
20260901000044 74 44 1.0 3.0 0.00 0.00 0.00 49 1015.0
20260831235542 74 70 1.0 2.0 0.00 0.00 0.00 48 1015.1
20260831235042 75 360 0.0 3.0 0.00 0.00 0.00 48 1015.1
20260831234542 75 360 1.0 3.0 0.00 0.00 0.00 47 1015.2
20260831234042 75 360 1.0 3.0 0.00 0.00 0.00 47 1015.2
20260831233539 75 360 1.0 3.0 0.00 0.00 0.00 47 1015.2
20260831233038 75 360 1.0 5.0 0.00 0.00 0.00 47 1015.3
20260831232538 76 360 1.0 5.0 0.00 0.00 0.00 46 1015.3
20260831232037 75 360 2.0 5.0 0.00 0.00 0.00 47 1015.3
20260831231537 76 360 0.0 6.0 0.00 0.00 0.00 46 1015.4
20260831231040 76 360 2.0 6.0 0.00 0.00 0.00 46 1015.4
20260831230539 75 360 2.0 5.0 0.00 0.00 0.00 46 1015.5
20260831230038 75 360 2.0 5.0 0.00 0.00 0.00 46 1015.5
20260831225535 75 360 1.0 3.0 0.00 0.00 0.00 46 1015.6
20260831225035 75 360 1.0 4.0 0.00 0.00 0.00 46 1015.6
20260831224534 76 360 1.0 4.0 0.00 0.00 0.00 46 1015.6
20260831224034 75 360 0.0 3.0 0.00 0.00 0.00 46 1015.7
20260831223538 75 360 0.0 3.0 0.00 0.00 0.00 46 1015.7
20260831223039 75 360 0.0 2.0 0.00 0.00 0.00 46 1015.7
20260831222534 75 360 0.0 2.0 0.00 0.00 0.00 46 1015.7
20260831222032 75 360 0.0 2.0 0.00 0.00 0.00 46 1015.8
20260831221532 75 360 0.0 2.0 0.00 0.00 0.00 46 1015.8
20260831221032 75 76 0.0 3.0 0.00 0.00 0.00 46 1015.9
20260831220532 75 74 0.0 4.0 0.00 0.00 0.00 46 1015.8
20260831220031 75 360 1.0 4.0 0.00 0.00 0.00 46 1016.0
20260831215535 76 68 0.0 4.0 0.00 0.00 0.00 46 1016.0
20260831215030 75 360 1.0 3.0 0.00 0.00 0.00 46 1015.9
20260831214532 75 360 0.0 3.0 0.00 0.00 0.00 47 1016.0
20260831214029 75 360 0.0 2.0 0.00 0.00 0.00 47 1016.0
20260831213529 75 360 0.0 2.0 0.00 0.00 0.00 47 1016.0
20260831213038 75 360 0.0 2.0 0.00 0.00 0.00 47 1016.0
20260831212529 75 360 0.0 3.0 0.00 0.00 0.00 47 1016.0
20260831212028 75 360 0.0 3.0 0.00 0.00 0.00 47 1016.0
20260831211529 75 360 0.0 1.0 0.00 0.00 0.00 47 1016.0
20260831211030 75 360 0.0 2.0 0.00 0.00 0.00 47 1016.0
20260831210531 75 360 0.0 2.0 0.00 0.00 0.00 48 1016.0
20260831210026 75 360 0.0 2.0 0.00 0.00 0.00 46 1016.0
20260831205527 75 360 0.0 2.0 0.00 0.00 0.00 47 1016.0
20260831205025 75 360 0.0 2.0 0.00 0.00 0.00 47 1016.0
20260831204525 75 360 0.0 2.0 0.00 0.00 0.00 48 1016.0
20260831204025 75 360 0.0 2.0 0.00 0.00 0.00 48 1016.0
20260831203624 75 360 0.0 2.0 0.00 0.00 0.00 49 1016.0
20260831203025 75 360 0.0 2.0 0.00 0.00 0.00 48 1016.0
20260831202525 75 360 0.0 3.0 0.00 0.00 0.00 49 1016.0
20260831202028 75 360 1.0 3.0 0.00 0.00 0.00 48 1016.0
20260831201534 75 360 0.0 2.0 0.00 0.00 0.00 48 1016.0
20260831201026 75 360 0.0 2.0 0.00 0.00 0.00 48 1016.0
20260831200524 75 360 0.0 2.0 0.00 0.00 0.00 48 1016.0
20260831200023 75 360 0.0 2.0 0.00 0.00 0.00 48 1016.0
20260831195525 75 360 0.0 3.0 0.00 0.00 0.00 48 1016.0
20260831195026 75 360 0.0 3.0 0.00 0.00 0.00 48 1016.0
20260831194536 75 360 1.0 3.0 0.00 0.00 0.00 49 1016.0
20260831194024 76 360 0.0 2.0 0.00 0.00 0.00 48 1016.0
20260831193523 76 360 0.0 4.0 0.00 0.00 0.00 47 1016.0
20260831193024 76 15 1.0 4.0 0.00 0.00 0.00 47 1015.9
20260831192522 76 345 2.0 4.0 0.00 0.00 0.00 47 1015.8
20260831192023 76 345 1.0 3.0 0.00 0.00 0.00 46 1015.8
20260831191522 77 360 0.0 3.0 0.00 0.00 0.00 46 1015.8
20260831191029 77 360 1.0 4.0 0.00 0.00 0.00 46 1015.8
20260831190522 77 360 1.0 4.0 0.00 0.00 0.00 45 1015.9
20260831190029 77 360 2.0 5.0 0.00 0.00 0.00 45 1015.8
20260831185523 77 360 2.0 8.0 0.00 0.00 0.00 45 1015.8
20260831185021 77 360 2.0 11.0 0.00 0.00 0.00 45 1015.8
20260831184522 77 360 5.0 11.0 0.00 0.00 0.00 46 1015.7
20260831184021 76 360 3.0 8.0 0.00 0.00 0.00 46 1015.6
20260831183521 76 360 1.0 3.0 0.00 0.00 0.00 46 1015.6
20260831183021 77 360 1.0 3.0 0.00 0.00 0.00 46 1015.5
20260831182523 77 360 0.0 3.0 0.00 0.00 0.00 46 1015.4
20260831182021 77 360 0.0 4.0 0.00 0.00 0.00 46 1015.5
20260831181622 77 360 1.0 4.0 0.00 0.00 0.00 45 1015.4
20260831181020 77 360 0.0 4.0 0.00 0.00 0.00 45 1015.4
20260831180520 77 360 1.0 4.0 0.00 0.00 0.00 46 1015.4
20260831180022 76 360 0.0 2.0 0.00 0.00 0.00 45 1015.4
20260831175526 76 360 1.0 2.0 0.00 0.00 0.00 46 1015.4
20260831175020 76 360 0.0 2.0 0.00 0.00 0.00 46 1015.4
20260831174532 76 360 0.0 1.0 0.00 0.00 0.00 46 1015.4
20260831174025 76 122 0.0 0.0 0.00 0.00 0.00 46 1015.3
20260831173522 77 360 0.0 2.0 0.00 0.00 0.00 45 1015.3
20260831173020 77 360 0.0 2.0 0.00 0.00 0.00 45 1015.3
20260831172520 77 360 0.0 2.0 0.00 0.00 0.00 45 1015.3
20260831172019 77 360 0.0 2.0 0.00 0.00 0.00 45 1015.3
20260831171529 78 360 0.0 2.0 0.00 0.00 0.00 45 1015.3
20260831171023 78 360 0.0 3.0 0.00 0.00 0.00 44 1015.3
20260831170519 78 121 0.0 3.0 0.00 0.00 0.00 44 1015.3
20260831170021 78 124 0.0 2.0 0.00 0.00 0.00 43 1015.2
20260831165519 78 360 1.0 2.0 0.00 0.00 0.00 43 1015.3
20260831165019 79 122 0.0 3.0 0.00 0.00 0.00 43 1015.2
20260831164518 79 122 1.0 4.0 0.00 0.00 0.00 42 1015.3
20260831164018 79 123 1.0 4.0 0.00 0.00 0.00 42 1015.3
20260831163518 79 93 2.0 4.0 0.00 0.00 0.00 42 1015.3
20260831163025 79 90 2.0 4.0 0.00 0.00 0.00 42 1015.3
20260831162519 79 90 2.0 6.0 0.00 0.00 0.00 42 1015.3
20260831162019 79 125 3.0 8.0 0.00 0.00 0.00 42 1015.3
20260831161517 80 87 3.0 8.0 0.00 0.00 0.00 42 1015.3
20260831161017 80 88 4.0 8.0 0.00 0.00 0.00 42 1015.3
20260831160517 80 110 3.0 9.0 0.00 0.00 0.00 42 1015.3
20260831160018 80 107 4.0 9.0 0.00 0.00 0.00 42 1015.3
20260831155517 80 73 3.0 9.0 0.00 0.00 0.00 42 1015.4
20260831155019 80 106 4.0 9.0 0.00 0.00 0.00 42 1015.3
20260831154527 80 75 4.0 10.0 0.00 0.00 0.00 42 1015.3
20260831154015 80 82 4.0 11.0 0.00 0.00 0.00 42 1015.3
20260831153519 80 69 5.0 10.0 0.00 0.00 0.00 42 1015.3
20260831153015 80 69 3.0 9.0 0.00 0.00 0.00 42 1015.4
20260831152516 81 86 4.0 9.0 0.00 0.00 0.00 42 1015.4
20260831152017 81 125 4.0 8.0 0.00 0.00 0.00 42 1015.2
20260831151515 81 69 4.0 11.0 0.00 0.00 0.00 42 1015.2
20260831151015 81 71 6.0 11.0 0.00 0.00 0.00 42 1015.3
20260831150515 81 94 8.0 11.0 0.00 0.00 0.00 42 1015.3
20260831150014 81 96 3.0 12.0 0.00 0.00 0.00 42 1015.3
20260831145513 81 101 4.0 12.0 0.00 0.00 0.00 42 1015.2
20260831145012 81 71 6.0 10.0 0.00 0.00 0.00 42 1015.4
20260831144514 81 84 4.0 10.0 0.00 0.00 0.00 42 1015.4
20260831144011 81 92 6.0 10.0 0.00 0.00 0.00 41 1015.4
20260831143515 82 88 4.0 12.0 0.00 0.00 0.00 41 1015.5
20260831143011 82 89 5.0 12.0 0.00 0.00 0.00 41 1015.5
20260831142512 82 360 6.0 13.0 0.00 0.00 0.00 41 1015.5
20260831142011 82 360 8.0 13.0 0.00 0.00 0.00 41 1015.6
20260831141512 82 64 6.0 12.0 0.00 0.00 0.00 41 1015.6
20260831141010 82 107 6.0 16.0 0.00 0.00 0.00 41 1015.6
20260831140511 82 57 9.0 16.0 0.00 0.00 0.00 40 1015.6
20260831140011 83 90 5.0 14.0 0.00 0.00 0.00 40 1015.6
20260831135511 83 72 6.0 14.0 0.00 0.00 0.00 40 1015.7
20260831135010 83 112 5.0 10.0 0.00 0.00 0.00 39 1015.6
20260831134510 83 96 4.0 11.0 0.00 0.00 0.00 41 1015.6
20260831134009 83 79 7.0 13.0 0.00 0.00 0.00 40 1015.5
20260831133509 83 360 4.0 13.0 0.00 0.00 0.00 41 1015.5
20260831133009 84 84 9.0 15.0 0.00 0.00 0.00 40 1015.5
20260831132510 83 71 7.0 15.0 0.00 0.00 0.00 40 1015.5
20260831132009 84 95 7.0 11.0 0.00 0.00 0.00 40 1015.5
20260831131514 84 62 5.0 16.0 0.00 0.00 0.00 40 1015.5
20260831131011 84 105 7.0 16.0 0.00 0.00 0.00 40 1015.5
20260831130508 84 82 7.0 14.0 0.00 0.00 0.00 41 1015.5
20260831130007 84 95 8.0 14.0 0.00 0.00 0.00 40 1015.5
20260831125508 84 92 5.0 13.0 0.00 0.00 0.00 41 1015.5
20260831125007 84 94 8.0 13.0 0.00 0.00 0.00 40 1015.6
20260831124509 84 82 8.0 13.0 0.00 0.00 0.00 42 1015.5
20260831124007 84 107 8.0 13.0 0.00 0.00 0.00 43 1015.5
20260831123505 84 88 4.0 10.0 0.00 0.00 0.00 44 1015.7
20260831123004 84 75 5.0 12.0 0.00 0.00 0.00 46 1015.7
20260831122504 84 67 7.0 11.0 0.00 0.00 0.00 45 1015.8
20260831122004 85 134 4.0 12.0 0.00 0.00 0.00 46 1015.8
20260831121504 85 42 4.0 13.0 0.00 0.00 0.00 44 1015.8
20260831121007 84 101 7.0 13.0 0.00 0.00 0.00 46 1016.0
20260831120504 85 82 5.0 13.0 0.00 0.00 0.00 42 1015.8
20260831120005 85 55 6.0 12.0 0.00 0.00 0.00 44 1015.7
20260831115503 84 137 6.0 15.0 0.00 0.00 0.00 46 1015.8
20260831115002 85 99 5.0 15.0 0.00 0.00 0.00 42 1016.0
20260831114503 85 92 7.0 14.0 0.00 0.00 0.00 39 1016.1
20260831114001 85 360 9.0 16.0 0.00 0.00 0.00 39 1016.1
20260831113503 85 67 5.0 16.0 0.00 0.00 0.00 40 1016.2
20260831113109 85 82 6.0 14.0 0.00 0.00 0.00 40 1016.1
20260831112600 85 105 6.0 11.0 0.00 0.00 0.00 41 1016.2
20260831112059 85 123 6.0 15.0 0.00 0.00 0.00 40 1016.2
20260831111601 85 84 6.0 15.0 0.00 0.00 0.00 41 1016.3